Lafayette, IN

8:50 AM EDT on July 21, 2017 (GMT -0400)
Purdue Univ

Weather History for KLAF - November, 2011

Change the Weather History Date:

Wednesday, November 16, 2011

  Actual Average Record
Temperature  
Mean Temperature 45 °F 43 °F  
Max Temperature 54 °F 51 °F 73 °F (1971)
Min Temperature 36 °F 34 °F 17 °F (1976)
Degree Days  
Heating Degree Days 20 22  
Month to date heating degree days 219 304  
Since 1 July heating degree days 633 738  
Cooling Degree Days 0 0  
Month to date cooling degree days 0 0  
Year to date cooling degree days 1246 982  
Moisture  
Dew Point 29 °F    
Average Humidity 69    
Maximum Humidity 100    
Minimum Humidity 37    
Precipitation  
Precipitation 0.00 in 0.10 in 1.35 in (2006)
Month to date precipitation 1.88 1.55  
Year to date precipitation 37.54 32.65  
Sea Level Pressure  
Sea Level Pressure 30.02 in    
Wind  
Wind Speed 9 mph (NNW)    
Max Wind Speed 20 mph    
Max Gust Speed 25 mph    
Visibility 10 miles    
Events      
T = Trace of Precipitation, MM = Missing Value Source: NWS Daily Summary

Daily Weather History Graph

Daily Weather History Graph

Search for Another Location

Airport or City:

Trip Planner

Search our weather history database for the weather conditions in past years. The results will help you decide how hot, cold, wet, or windy it might be!

Date:

Astronomy

Nov. 16, 2011 Rise Set
Actual Time 7:34 AM EST 5:29 PM EST
Civil Twilight 7:05 AM EST 5:59 PM EST
Nautical Twilight 6:32 AM EST 6:32 PM EST
Astronomical Twilight 6:00 AM EST 7:04 PM EST
Moon 10:43 PM EST (11/16) 12:10 PM EST (11/16)
Length of Visible Light 10h 53m
Length of Day
9h 55m
Waning Gibbous, 70% of the Moon is Illuminated
Nov 16
Waning Gibbous
Nov 18
Last Quarter
Nov 25
New
Dec 2
First Quarter
Dec 10
Full

Hourly Weather History & Observations

Time (EST) Temp. Windchill Dew Point Humidity Pressure Visibility Wind Dir Wind Speed Gust Speed Precip Events Conditions
12:49 AM 51.8 °F - 51.8 °F 100% 29.83 in 5.0 mi WSW 3.5 mph - N/A   Mostly Cloudy
1:54 AM 53.1 °F - 53.1 °F 100% 29.84 in 7.0 mi WNW 10.4 mph - N/A   Overcast
2:25 AM 51.8 °F - 50.0 °F 94% 29.85 in 8.0 mi NW 9.2 mph - N/A   Partly Cloudy
2:54 AM 51.1 °F - 45.0 °F 80% 29.87 in 10.0 mi NNW 6.9 mph - N/A   Clear
3:54 AM 48.0 °F - 39.9 °F 74% 29.88 in 10.0 mi NNW 15.0 mph - N/A   Clear
4:54 AM 45.0 °F 39.7 °F 35.1 °F 68% 29.91 in 10.0 mi North 10.4 mph - N/A   Clear
5:54 AM 43.0 °F 38.8 °F 34.0 °F 71% 29.93 in 10.0 mi NNW 6.9 mph - N/A   Clear
7:54 AM 39.9 °F 34.5 °F 30.9 °F 70% 29.97 in 10.0 mi NW 8.1 mph - N/A   Clear
8:54 AM 39.0 °F 32.3 °F 30.0 °F 70% 30.01 in 10.0 mi NNW 10.4 mph - N/A   Clear
9:54 AM 39.9 °F 33.4 °F 26.1 °F 58% 30.04 in 10.0 mi NNW 10.4 mph 18.4 mph N/A   Clear
10:54 AM 41.0 °F 34.7 °F 27.0 °F 57% 30.05 in 10.0 mi NW 10.4 mph - N/A   Clear
11:54 AM 44.1 °F 39.0 °F 23.0 °F 43% 30.04 in 10.0 mi NNW 9.2 mph - N/A   Clear
12:54 PM 44.1 °F 37.7 °F 24.1 °F 45% 30.04 in 10.0 mi NNW 12.7 mph 23.0 mph N/A   Clear
1:54 PM 45.0 °F 38.5 °F 21.9 °F 40% 30.05 in 10.0 mi North 13.8 mph - N/A   Clear
2:54 PM 45.0 °F 37.9 °F 21.9 °F 40% 30.06 in 10.0 mi NNW 16.1 mph 23.0 mph N/A   Clear
3:54 PM 44.1 °F 37.4 °F 19.9 °F 38% 30.08 in 10.0 mi NNW 13.8 mph 23.0 mph N/A   Clear
4:54 PM 42.1 °F 36.6 °F 19.0 °F 40% 30.11 in 10.0 mi NNW 9.2 mph - N/A   Clear
6:54 PM 39.0 °F 32.8 °F 19.0 °F 45% 30.16 in 10.0 mi NNW 9.2 mph - N/A   Partly Cloudy
7:54 PM 39.0 °F 33.4 °F 19.0 °F 45% 30.17 in 10.0 mi NNW 8.1 mph - N/A   Clear
8:54 PM 37.0 °F 31.6 °F 19.9 °F 50% 30.16 in 10.0 mi NW 6.9 mph - N/A   Clear
9:54 PM 37.0 °F - 19.0 °F 48% 30.17 in 10.0 mi North - - N/A   Partly Cloudy
10:54 PM 37.0 °F - 18.0 °F 46% 30.17 in 10.0 mi North - - N/A   Partly Cloudy
11:54 PM 36.0 °F - 19.0 °F 50% 30.17 in 10.0 mi North - - N/A   Scattered Clouds